GPS BIIR-13 (PRN 02)

Last updated on Wed Jun 24 2026 00:03:27 GMT+0000 (Coordinated Universal Time)

1 28474U 04045A 26173.53976058 -.00000101 00000+0 00000+0 0 9991 2 28474 55.1326 324.6805 0169876 316.5357 226.0249 2.00556172158539
UTC large
Height (km)
Speed (km/s)
/
Latitude / Longitude
Inclination (degrees)
Orbital Period (minutes)
Azimuth
Elevation
Range (km)
Doppler Factor

Next 0 passes for location: London (51.5072 / 0.1276)

No passes found over London.
GPS BIIR-13 (PRN 02)